Vertical_Velocity
4 -2 -0 1 -7 -7 -2 1 1 0 -1 -1 -0 -0 1 2 -2 1 -0 -8 0 10 1 1 2 -2 -5
3 -1 4 -5 0 -4 -10 -4 0 2 -0 -3 -1 -0 -3 -3 -0 0 10 0 -7 6 24 5 1 -0 -3
14 -1 6 -10 -1 5 -6 -7 -4 -1 3 0 -2 0 -0 2 -0 -6 3 -3 -7 -4 -1 0 -1 4 -8
-1 3 -1 9 -8 1 -2 -3 -7 -4 -2 2 -1 -2 -2 -1 -1 -1 3 0 -3 -6 -4 4 -2 4 -6
-4 -2 -0 9 -1 -8 7 -5 -3 -13 -1 -2 1 -1 -3 -1 -3 -1 2 4 -2 1 -8 14 -3 1 -3
-5 -2 5 -3 1 -3 -8 5 -16 -0 -5 0 4 -1 -3 3 -1 -0 -5 5 -1 3 -11 19 8 -4 -1
-5 -1 -0 -2 1 2 -7 -6 1 4 -5 3 -8 6 -5 0 -3 3 2 1 5 4 -9 2 11 1 -3
-7 2 -0 -2 -3 -8 -2 -10 -2 6 -7 7 -19 4 -5 -2 -3 -0 1 3 3 3 0 -1 12 -5 -1
-5 -3 -4 2 -1 -8 -3 -10 2 5 -7 3 -1 -4 4 -8 2 -1 3 -1 -1 -6 -5 1 7 -1 -2
-1 -2 -3 -3 -4 -6 -4 -1 -8 -2 -3 -0 2 -6 5 -5 -3 2 -3 1 1 2 6 -2 2 3 -6
1 -1 -2 -2 -3 -7 -3 -5 -7 2 -5 1 -2 -0 -2 3 -3 -3 0 1 3 3 0 2 -3 4 -8
-4 1 1 -0 -0 -3 -6 -3 -1 7 -12 0 1 -1 3 1 4 -4 -2 -2 1 3 2 2 -6 9 10
-0 2 1 -0 -6 -1 -3 -4 0 -0 -8 5 1 0 -0 5 4 1 -3 -0 -0 0 4 -5 3 -2 -6
-1 -0 1 -0 -1 -3 -2 -3 -2 1 -3 4 -1 -1 -0 10 4 -0 5 -5 3 0 1 -2 -0 -10 -8
-1 -1 1 -0 0 -3 -2 -6 -1 2 -4 1 -2 -1 1 -4 6 1 3 3 2 -3 6 1 -8 2 -8
-1 1 -0 -0 -1 -2 -4 -1 -0 2 -1 1 -1 -2 1 0 5 4 -1 12 1 -1 3 6 -4 1 -4
-1 -2 -2 -2 -2 -2 0 -3 1 2 2 -2 -3 -3 -2 3 7 7 1 5 1 -2 -3 5 3 -2 0
Height
5641 5641 5645 5651 5657 5663 5669 5675 5683 5689 5696 5701 5706 5712 5717 5720 5723 5724 5728 5729 5730 5739 5744 5751 5758 5760 5766
5612 5619 5624 5627 5636 5642 5649 5657 5663 5670 5678 5686 5693 5698 5703 5708 5713 5717 5718 5721 5724 5728 5735 5743 5752 5754 5760
5582 5588 5596 5601 5607 5618 5626 5634 5643 5651 5660 5669 5676 5683 5690 5696 5703 5708 5712 5713 5718 5719 5727 5735 5745 5747 5754
5550 5556 5563 5569 5580 5585 5599 5608 5619 5629 5639 5650 5659 5667 5674 5682 5689 5695 5700 5707 5709 5712 5720 5728 5737 5739 5747
5520 5524 5533 5540 5546 5556 5566 5578 5592 5605 5617 5628 5641 5649 5657 5666 5675 5681 5689 5696 5700 5705 5710 5719 5727 5733 5739
5490 5496 5502 5508 5515 5523 5538 5546 5562 5580 5591 5606 5618 5628 5638 5649 5660 5668 5675 5683 5690 5694 5701 5709 5717 5725 5731
5463 5468 5473 5478 5485 5496 5504 5517 5531 5546 5561 5581 5593 5607 5619 5631 5643 5653 5662 5671 5679 5685 5691 5697 5707 5715 5723
5436 5442 5446 5449 5455 5464 5473 5489 5502 5515 5529 5552 5564 5581 5596 5610 5624 5635 5646 5656 5666 5674 5680 5684 5696 5706 5713
5415 5417 5421 5427 5430 5435 5447 5455 5475 5484 5501 5518 5537 5552 5571 5586 5602 5616 5628 5639 5651 5661 5668 5674 5684 5695 5704
5398 5399 5402 5405 5410 5415 5421 5431 5443 5458 5472 5489 5508 5523 5543 5561 5579 5595 5609 5621 5636 5647 5656 5664 5674 5683 5694
5382 5382 5383 5387 5391 5395 5401 5408 5417 5435 5442 5457 5479 5498 5514 5536 5555 5573 5589 5604 5618 5632 5642 5652 5661 5672 5684
5365 5367 5368 5370 5373 5376 5381 5388 5397 5410 5417 5430 5454 5472 5490 5511 5528 5551 5568 5585 5600 5613 5626 5637 5646 5660 5672
5350 5352 5353 5355 5355 5359 5366 5372 5380 5389 5398 5408 5427 5446 5464 5485 5504 5522 5544 5563 5580 5594 5609 5621 5632 5644 5657
5335 5336 5338 5340 5343 5345 5350 5357 5366 5373 5380 5388 5401 5423 5441 5461 5478 5496 5520 5539 5559 5575 5590 5606 5620 5632 5646
5321 5323 5324 5327 5330 5331 5336 5342 5351 5359 5365 5370 5379 5398 5417 5435 5457 5475 5496 5517 5538 5556 5572 5588 5606 5618 5633
5307 5309 5311 5314 5316 5319 5322 5328 5336 5345 5352 5355 5361 5377 5394 5415 5437 5456 5473 5496 5515 5535 5552 5570 5590 5603 5618
5296 5295 5297 5299 5301 5305 5309 5314 5322 5330 5338 5342 5347 5359 5376 5398 5416 5433 5452 5472 5491 5515 5534 5552 5571 5587 5602